Location: Newark
(13.6797°N, 8.5297°E)
Time: 10:29:48
(UTC+00:00)

Courier 1B Rocket - Pass Details

Date: 22 January 2020
Orbit: 920 x 1202 km, 28.2° (Epoch: 19 February)

Event Time Altitude Azimuth Distance (km) Brightness Sun altitude
Rises 17:40:40 0° 299° (WNW) 3,564 8.6 -5.3°
Reaches altitude 10° 17:43:18 10° 302° (WNW) 2,608 7.9 -5.9°
Maximum altitude 17:49:30 67° 25° (NNE) 986 4.9 -7.3°
Drops below altitude 10° 17:55:46 10° 107° (ESE) 2,638 6.8 -8.8°
Enters shadow 17:57:29 - 109° (ESE) 3,257 7.3 -9.2°
